map of TZX home
Great Circle Mapper logo
TZX - Airport
Location
City:  Trabzon, Turkey
Name:Trabzon AB
ICAO / IATA:LTCG / TZX

Details
Type:Airport (Aerodrome, Airfield)
Use:Public/Civil, Military
Latitude:4059'42"N (40.995108)
Longitude:3947'23"E (39.789728)
Datum:WGS 1984
Elevation:104 ft (32 m)
Runways:1
Longest:8661 × 148 ft (2640 × 45 m), paved

Time
Time Zone:UTC+2 (DST+3)
Local Time:

Weather
METAR:LTCG 221250Z 30006KT 9999 FEW016 BKN035 27/23 Q1015 NOSIG RMK RWY29 30007KT

Related Locations
Nearby:
Farthest:NTAV: 11176 mi / 17986 km
Raivavae, Tubuai Islands, Austral Islands, PF

Find:

   beyond  
but within

Other Information
Maps:
NOTAMs:
Links:
Sources:

  
flag of Turkey   

Sectional Chart

Flight Planning
at skyvector.com

Satellite Image

Google Maps Satellite View

 

Copyright © 2004-2014 Karl L. Swartz. All rights reserved.
The Great Circle Mapper name and logo are trademarks of the Great Circle Mapper.
All other trademarks mentioned herein belong to their respective owners.
Please see credits for attibutions and further copyright information.

  Follow gcmap on Facebook Follow gcmap on Twitter

hCard Microformat

Geo Microformat